Time,TemperatureF,DewpointF,PressureIn,WindDirection,WindDirectionDegrees,WindSpeedMPH,WindSpeedGustMPH,Humidity,HourlyPrecipIn,Conditions,Clouds,dailyrainin,SoftwareType,DateUTC
2013-05-20 00:02:00,69.6,62.8,29.71,SW,225,0.0,0.0,79,0.00,,,0.00,meteohub,2013-05-20 05:02:00,
2013-05-20 00:07:00,69.6,62.8,29.72,South,180,0.0,0.0,79,0.00,,,0.00,meteohub,2013-05-20 05:07:00,
2013-05-20 00:12:00,69.6,62.8,29.72,SE,135,0.0,0.0,79,0.00,,,0.00,meteohub,2013-05-20 05:12:00,
2013-05-20 00:22:00,69.8,62.6,29.72,SE,135,0.0,0.0,78,0.00,,,0.00,meteohub,2013-05-20 05:22:00,
2013-05-20 00:27:00,70.2,62.6,29.71,South,180,0.0,0.0,77,0.00,,,0.00,meteohub,2013-05-20 05:27:00,
2013-05-20 00:32:00,70.5,62.6,29.71,South,180,0.0,0.0,76,0.00,,,0.00,meteohub,2013-05-20 05:32:00,
2013-05-20 00:37:00,70.5,62.2,29.72,West,270,0.0,0.0,75,0.00,,,0.00,meteohub,2013-05-20 05:37:00,
2013-05-20 00:42:00,70.5,62.2,29.72,SE,135,0.0,0.0,75,0.00,,,0.00,meteohub,2013-05-20 05:42:00,
2013-05-20 00:53:00,70.3,62.1,29.72,South,180,0.0,0.0,75,0.00,,,0.00,meteohub,2013-05-20 05:53:00,
2013-05-20 01:02:00,70.0,62.1,29.72,South,180,0.0,0.0,76,0.00,,,0.00,meteohub,2013-05-20 06:02:00,
2013-05-20 01:07:00,69.8,62.2,29.72,ESE,113,0.0,0.0,77,0.00,,,0.00,meteohub,2013-05-20 06:07:00,
2013-05-20 01:12:00,69.8,62.2,29.71,South,180,0.0,0.0,77,0.00,,,0.00,meteohub,2013-05-20 06:12:00,
2013-05-20 01:17:00,70.0,62.4,29.71,East,90,0.0,0.0,77,0.00,,,0.00,meteohub,2013-05-20 06:17:00,
2013-05-20 01:22:00,70.2,62.6,29.71,East,90,0.0,0.0,77,0.00,,,0.00,meteohub,2013-05-20 06:22:00,
2013-05-20 01:27:00,70.2,62.6,29.72,SE,135,0.0,0.0,77,0.00,,,0.00,meteohub,2013-05-20 06:27:00,
2013-05-20 01:32:00,70.3,62.8,29.72,SW,225,0.0,0.0,77,0.00,,,0.00,meteohub,2013-05-20 06:32:00,
2013-05-20 01:37:00,70.5,63.0,29.72,South,180,0.0,0.0,77,0.00,,,0.00,meteohub,2013-05-20 06:37:00,
2013-05-20 01:42:00,70.5,63.0,29.72,South,180,0.0,0.0,77,0.00,,,0.00,meteohub,2013-05-20 06:42:00,
2013-05-20 01:47:00,70.5,63.0,29.72,SW,225,0.0,0.0,77,0.00,,,0.00,meteohub,2013-05-20 06:47:00,
2013-05-20 01:52:00,70.7,63.1,29.71,South,180,0.0,0.0,77,0.00,,,0.00,meteohub,2013-05-20 06:52:00,
2013-05-20 01:57:00,70.7,63.5,29.72,South,180,0.0,0.0,78,0.00,,,0.00,meteohub,2013-05-20 06:57:00,
2013-05-20 02:02:00,70.7,63.5,29.72,SE,135,0.0,0.0,78,0.00,,,0.00,meteohub,2013-05-20 07:02:00,
2013-05-20 02:07:00,70.7,63.9,29.72,South,180,0.0,0.0,79,0.00,,,0.00,meteohub,2013-05-20 07:07:00,
2013-05-20 02:12:00,70.7,63.9,29.72,SW,225,0.0,0.0,79,0.00,,,0.00,meteohub,2013-05-20 07:12:00,
2013-05-20 02:17:00,70.7,63.9,29.72,South,180,0.0,0.0,79,0.00,,,0.00,meteohub,2013-05-20 07:17:00,
2013-05-20 02:22:00,70.5,63.7,29.72,South,180,0.0,0.0,79,0.00,,,0.00,meteohub,2013-05-20 07:22:00,
2013-05-20 02:27:00,70.5,64.0,29.72,SW,225,0.0,0.0,80,0.00,,,0.00,meteohub,2013-05-20 07:27:00,
2013-05-20 02:32:00,70.3,63.9,29.72,South,180,0.0,0.0,80,0.00,,,0.00,meteohub,2013-05-20 07:32:00,
2013-05-20 02:37:00,70.3,64.2,29.71,South,180,0.0,0.0,81,0.00,,,0.00,meteohub,2013-05-20 07:37:00,
2013-05-20 02:42:00,70.3,64.2,29.72,SW,225,0.0,0.0,81,0.00,,,0.00,meteohub,2013-05-20 07:42:00,
2013-05-20 02:47:00,70.2,64.4,29.71,SW,225,0.0,0.0,82,0.00,,,0.00,meteohub,2013-05-20 07:47:00,
2013-05-20 02:52:00,70.2,64.4,29.71,SE,135,0.0,0.0,82,0.00,,,0.00,meteohub,2013-05-20 07:52:00,
2013-05-20 02:57:00,70.2,64.8,29.70,SE,135,0.0,0.0,83,0.00,,,0.00,meteohub,2013-05-20 07:57:00,
2013-05-20 03:02:00,70.2,64.8,29.70,East,90,0.0,0.0,83,0.00,,,0.00,meteohub,2013-05-20 08:02:00,
2013-05-20 03:07:00,70.2,65.1,29.70,SE,135,0.0,0.0,84,0.00,,,0.00,meteohub,2013-05-20 08:07:00,
2013-05-20 03:12:00,70.2,65.1,29.70,SE,135,0.0,0.0,84,0.00,,,0.00,meteohub,2013-05-20 08:12:00,
2013-05-20 03:17:00,70.2,65.5,29.70,SE,135,0.0,0.0,85,0.00,,,0.00,meteohub,2013-05-20 08:17:00,
2013-05-20 03:22:00,70.2,65.5,29.69,SW,225,0.0,0.0,85,0.00,,,0.00,meteohub,2013-05-20 08:22:00,
2013-05-20 03:27:00,70.2,65.8,29.70,West,270,0.0,0.0,86,0.00,,,0.00,meteohub,2013-05-20 08:27:00,
2013-05-20 03:32:00,70.3,66.0,29.70,West,270,0.0,0.0,86,0.00,,,0.00,meteohub,2013-05-20 08:32:00,
2013-05-20 03:37:00,70.9,66.6,29.70,West,270,0.0,0.0,86,0.00,,,0.00,meteohub,2013-05-20 08:37:00,
2013-05-20 03:42:00,71.2,66.6,29.70,NW,315,0.0,0.0,85,0.00,,,0.00,meteohub,2013-05-20 08:42:00,
2013-05-20 03:47:00,71.4,66.7,29.70,West,270,0.0,0.0,85,0.00,,,0.00,meteohub,2013-05-20 08:47:00,
2013-05-20 03:52:00,71.4,66.7,29.70,South,180,0.0,0.0,85,0.00,,,0.00,meteohub,2013-05-20 08:52:00,
2013-05-20 03:57:00,71.4,66.7,29.70,West,270,0.0,0.0,85,0.00,,,0.00,meteohub,2013-05-20 08:57:00,
2013-05-20 04:02:00,71.4,66.7,29.69,SE,135,0.0,0.0,85,0.00,,,0.00,meteohub,2013-05-20 09:02:00,
2013-05-20 04:07:00,71.2,66.6,29.69,West,270,0.0,0.0,85,0.00,,,0.00,meteohub,2013-05-20 09:07:00,
2013-05-20 04:12:00,71.1,66.4,29.69,SE,135,0.0,0.0,85,0.00,,,0.00,meteohub,2013-05-20 09:12:00,
2013-05-20 04:17:00,70.9,66.2,29.69,NW,315,0.0,0.0,85,0.00,,,0.00,meteohub,2013-05-20 09:17:00,
2013-05-20 04:22:00,70.5,66.2,29.70,NW,315,0.0,0.0,86,0.00,,,0.00,meteohub,2013-05-20 09:22:00,
2013-05-20 04:27:00,70.2,65.8,29.70,South,180,0.0,0.0,86,0.00,,,0.00,meteohub,2013-05-20 09:27:00,
2013-05-20 04:32:00,69.8,65.8,29.70,North,0,0.0,0.0,87,0.00,,,0.00,meteohub,2013-05-20 09:32:00,
2013-05-20 04:37:00,69.4,66.0,29.70,East,90,0.0,0.0,89,0.00,,,0.00,meteohub,2013-05-20 09:37:00,
2013-05-20 04:42:00,69.4,66.4,29.70,East,90,0.0,0.0,90,0.00,,,0.00,meteohub,2013-05-20 09:42:00,
2013-05-20 04:47:00,70.7,63.9,29.72,South,180,0.0,0.0,79,0.00,,,0.00,meteohub,2013-05-20 09:47:00,
2013-05-20 04:52:00,69.1,66.0,29.70,East,90,0.0,0.0,90,0.00,,,0.00,meteohub,2013-05-20 09:52:00,
2013-05-20 04:57:00,68.9,66.2,29.70,South,180,0.0,0.0,91,0.00,,,0.00,meteohub,2013-05-20 09:57:00,
2013-05-20 05:02:00,68.7,66.4,29.69,NE,45,0.0,0.0,92,0.00,,,0.00,meteohub,2013-05-20 10:02:00,
2013-05-20 05:07:00,68.5,66.2,29.69,East,90,0.0,0.0,92,0.00,,,0.00,meteohub,2013-05-20 10:07:00,
2013-05-20 05:12:00,68.5,66.4,29.70,SE,135,0.0,0.0,93,0.00,,,0.00,meteohub,2013-05-20 10:12:00,
2013-05-20 05:17:00,68.4,66.2,29.70,South,180,0.0,0.0,93,0.00,,,0.00,meteohub,2013-05-20 10:17:00,
2013-05-20 05:22:00,68.2,66.0,29.70,NE,45,0.0,0.0,93,0.00,,,0.00,meteohub,2013-05-20 10:22:00,
2013-05-20 05:27:00,68.2,66.0,29.70,East,90,0.0,0.0,93,0.00,,,0.00,meteohub,2013-05-20 10:27:00,
2013-05-20 05:32:00,68.2,66.0,29.70,East,90,0.0,0.0,93,0.00,,,0.00,meteohub,2013-05-20 10:32:00,
2013-05-20 05:37:00,67.8,66.0,29.70,SW,225,0.0,0.0,94,0.00,,,0.00,meteohub,2013-05-20 10:37:00,
2013-05-20 05:42:00,67.6,65.8,29.70,East,90,0.0,0.0,94,0.00,,,0.00,meteohub,2013-05-20 10:42:00,
2013-05-20 05:47:00,67.5,65.7,29.70,NW,315,0.0,0.0,94,0.00,,,0.00,meteohub,2013-05-20 10:47:00,
2013-05-20 05:52:00,67.3,65.8,29.70,NE,45,0.0,0.0,95,0.00,,,0.00,meteohub,2013-05-20 10:52:00,
2013-05-20 05:57:00,67.5,66.0,29.68,NE,45,0.0,0.0,95,0.00,,,0.00,meteohub,2013-05-20 10:57:00,
2013-05-20 06:02:00,67.3,66.0,29.68,East,90,0.0,0.0,96,0.00,,,0.00,meteohub,2013-05-20 11:02:00,
2013-05-20 06:07:00,67.5,66.2,29.68,East,90,0.0,0.0,96,0.00,,,0.00,meteohub,2013-05-20 11:07:00,
2013-05-20 06:12:00,67.6,66.4,29.69,North,0,0.0,0.0,96,0.00,,,0.00,meteohub,2013-05-20 11:12:00,
2013-05-20 06:17:00,67.8,66.6,29.70,East,90,0.0,0.0,96,0.00,,,0.00,meteohub,2013-05-20 11:17:00,
2013-05-20 06:22:00,68.0,66.6,29.70,SE,135,0.0,0.0,95,0.00,,,0.00,meteohub,2013-05-20 11:22:00,
2013-05-20 06:27:00,68.2,66.7,29.71,South,180,0.0,0.0,95,0.00,,,0.00,meteohub,2013-05-20 11:27:00,
2013-05-20 06:32:00,68.5,67.1,29.72,South,180,0.0,0.0,95,0.00,,,0.00,meteohub,2013-05-20 11:32:00,
2013-05-20 06:37:00,68.9,67.1,29.72,South,180,0.0,0.0,94,0.00,,,0.00,meteohub,2013-05-20 11:37:00,
2013-05-20 06:42:00,69.1,67.3,29.73,SW,225,0.0,0.0,94,0.00,,,0.00,meteohub,2013-05-20 11:42:00,
2013-05-20 06:47:00,69.3,67.1,29.73,South,180,0.0,0.0,93,0.00,,,0.00,meteohub,2013-05-20 11:47:00,
2013-05-20 06:52:00,69.8,67.3,29.73,SE,135,0.0,0.0,92,0.00,,,0.00,meteohub,2013-05-20 11:52:00,
2013-05-20 06:57:00,70.3,67.6,29.73,South,180,0.0,0.0,91,0.00,,,0.00,meteohub,2013-05-20 11:57:00,
2013-05-20 07:02:00,70.7,67.6,29.73,SSW,203,0.0,0.0,90,0.00,,,0.00,meteohub,2013-05-20 12:02:00,
2013-05-20 07:07:00,70.7,67.6,29.73,South,180,0.0,0.0,90,0.00,,,0.00,meteohub,2013-05-20 12:07:00,
2013-05-20 07:12:00,70.7,67.6,29.70,East,90,0.0,0.0,90,0.00,,,0.00,meteohub,2013-05-20 12:12:00,
2013-05-20 07:17:00,70.9,67.8,29.70,South,180,0.0,0.0,90,0.00,,,0.00,meteohub,2013-05-20 12:17:00,
2013-05-20 07:22:00,71.8,68.4,29.70,South,180,0.0,0.0,89,0.00,,,0.00,meteohub,2013-05-20 12:22:00,
2013-05-20 07:27:00,73.4,69.3,29.71,SSW,203,0.0,0.0,87,0.00,,,0.00,meteohub,2013-05-20 12:27:00,
2013-05-20 07:32:00,74.1,69.3,29.71,SE,135,0.0,0.0,85,0.00,,,0.00,meteohub,2013-05-20 12:32:00,
2013-05-20 07:37:00,74.3,68.7,29.73,SW,225,0.0,0.0,83,0.00,,,0.00,meteohub,2013-05-20 12:37:00,
2013-05-20 07:42:00,74.3,68.7,29.73,SW,225,0.0,0.0,83,0.00,,,0.00,meteohub,2013-05-20 12:42:00,
2013-05-20 07:47:00,74.5,68.5,29.73,South,180,0.0,0.0,82,0.00,,,0.00,meteohub,2013-05-20 12:47:00,
2013-05-20 07:52:00,74.5,67.8,29.72,East,90,0.0,0.0,80,0.00,,,0.00,meteohub,2013-05-20 12:52:00,
2013-05-20 07:57:00,74.5,67.5,29.72,SW,225,0.0,0.0,79,0.00,,,0.00,meteohub,2013-05-20 12:57:00,
2013-05-20 08:02:00,74.3,66.9,29.72,SW,225,0.0,0.0,78,0.00,,,0.00,meteohub,2013-05-20 13:02:00,
2013-05-20 08:07:00,74.3,66.6,29.71,NW,315,0.0,0.0,77,0.00,,,0.00,meteohub,2013-05-20 13:07:00,
2013-05-20 08:12:00,74.7,66.2,29.70,SSW,203,0.0,0.0,75,0.00,,,0.00,meteohub,2013-05-20 13:12:00,
2013-05-20 08:17:00,74.8,65.7,29.69,SW,225,0.0,0.0,73,0.00,,,0.00,meteohub,2013-05-20 13:17:00,
2013-05-20 08:22:00,74.7,65.1,29.69,SW,225,0.0,0.0,72,0.00,,,0.00,meteohub,2013-05-20 13:22:00,
2013-05-20 08:27:00,74.3,64.8,29.69,SE,135,0.0,0.0,72,0.00,,,0.00,meteohub,2013-05-20 13:27:00,
2013-05-20 08:32:00,74.1,64.0,29.68,SW,225,0.0,0.0,71,0.00,,,0.00,meteohub,2013-05-20 13:32:00,
2013-05-20 08:37:00,73.9,63.5,29.69,South,180,0.0,0.0,70,0.00,,,0.00,meteohub,2013-05-20 13:37:00,
2013-05-20 08:42:00,74.1,64.0,29.69,SW,225,0.0,0.0,71,0.00,,,0.00,meteohub,2013-05-20 13:42:00,
2013-05-20 08:47:00,73.9,63.9,29.70,South,180,0.0,0.0,71,0.00,,,0.00,meteohub,2013-05-20 13:47:00,
2013-05-20 08:52:00,73.9,63.5,29.70,SW,225,0.0,0.0,70,0.00,,,0.00,meteohub,2013-05-20 13:52:00,
2013-05-20 08:57:00,74.1,63.7,29.69,SW,225,0.0,0.0,70,0.00,,,0.00,meteohub,2013-05-20 13:57:00,
2013-05-20 09:02:00,74.5,63.7,29.69,South,180,0.0,0.0,69,0.00,,,0.00,meteohub,2013-05-20 14:02:00,
2013-05-20 09:07:00,75.0,64.2,29.69,South,180,0.0,0.0,69,0.00,,,0.00,meteohub,2013-05-20 14:07:00,
2013-05-20 09:12:00,75.2,63.1,29.68,SE,135,0.0,0.0,66,0.00,,,0.00,meteohub,2013-05-20 14:12:00,
2013-05-20 09:17:00,75.9,63.7,29.68,SW,225,0.0,0.0,66,0.00,,,0.00,meteohub,2013-05-20 14:17:00,
2013-05-20 09:22:00,76.3,63.7,29.68,West,270,0.0,0.0,65,0.00,,,0.00,meteohub,2013-05-20 14:22:00,
2013-05-20 09:27:00,76.3,63.7,29.67,SSE,158,0.0,0.0,65,0.00,,,0.00,meteohub,2013-05-20 14:27:00,
2013-05-20 09:32:00,76.3,63.1,29.67,South,180,0.0,0.0,64,0.00,,,0.00,meteohub,2013-05-20 14:32:00,
2013-05-20 09:37:00,76.5,63.3,29.67,SW,225,0.0,0.0,64,0.00,,,0.00,meteohub,2013-05-20 14:37:00,
2013-05-20 09:42:00,76.5,64.2,29.68,East,90,0.0,0.0,66,0.00,,,0.00,meteohub,2013-05-20 14:42:00,
2013-05-20 09:47:00,77.0,64.8,29.67,SW,225,0.0,0.0,66,0.00,,,0.00,meteohub,2013-05-20 14:47:00,
2013-05-20 09:52:00,77.5,65.3,29.68,East,90,0.0,0.0,66,0.00,,,0.00,meteohub,2013-05-20 14:52:00,
2013-05-20 09:57:00,77.7,64.6,29.68,SE,135,0.0,0.0,64,0.00,,,0.00,meteohub,2013-05-20 14:57:00,
2013-05-20 10:02:00,78.3,65.1,29.68,South,180,0.0,0.0,64,0.00,,,0.00,meteohub,2013-05-20 15:02:00,
2013-05-20 10:07:00,78.6,64.0,29.68,South,180,0.0,0.0,61,0.00,,,0.00,meteohub,2013-05-20 15:07:00,
2013-05-20 10:12:00,78.6,63.5,29.69,South,180,0.0,0.0,60,0.00,,,0.00,meteohub,2013-05-20 15:12:00,
2013-05-20 10:17:00,79.0,61.5,29.69,South,180,0.0,0.0,55,0.00,,,0.00,meteohub,2013-05-20 15:17:00,
2013-05-20 10:22:00,79.3,60.3,29.69,SSE,158,0.0,0.0,52,0.00,,,0.00,meteohub,2013-05-20 15:22:00,
2013-05-20 10:32:00,80.4,61.2,29.68,South,180,1.0,0.0,52,0.00,,,0.00,meteohub,2013-05-20 15:32:00,
2013-05-20 10:37:00,80.4,60.1,29.69,SSW,203,0.0,1.0,50,0.00,,,0.00,meteohub,2013-05-20 15:37:00,
2013-05-20 10:42:00,80.6,60.8,29.69,SW,225,0.0,1.0,51,0.00,,,0.00,meteohub,2013-05-20 15:42:00,
2013-05-20 10:47:00,80.8,59.9,29.69,South,180,0.0,1.0,49,0.00,,,0.00,meteohub,2013-05-20 15:47:00,
2013-05-20 10:52:00,80.4,59.5,29.69,SE,135,0.0,0.0,49,0.00,,,0.00,meteohub,2013-05-20 15:52:00,
2013-05-20 10:57:00,80.2,58.8,29.69,SW,225,0.0,0.0,48,0.00,,,0.00,meteohub,2013-05-20 15:57:00,
2013-05-20 11:02:00,80.1,57.4,29.68,SW,225,0.0,0.0,46,0.00,,,0.00,meteohub,2013-05-20 16:02:00,
2013-05-20 11:07:00,80.6,57.4,29.68,SW,225,0.0,0.0,45,0.00,,,0.00,meteohub,2013-05-20 16:07:00,
2013-05-20 11:12:00,80.8,58.1,29.68,SW,225,0.0,0.0,46,0.00,,,0.00,meteohub,2013-05-20 16:12:00,
2013-05-20 11:17:00,81.0,57.6,29.68,WSW,248,0.0,0.0,45,0.00,,,0.00,meteohub,2013-05-20 16:17:00,
2013-05-20 11:22:00,80.1,57.4,29.69,South,180,0.0,0.0,46,0.00,,,0.00,meteohub,2013-05-20 16:22:00,
2013-05-20 11:27:00,80.2,58.1,29.69,SSW,203,0.0,0.0,47,0.00,,,0.00,meteohub,2013-05-20 16:27:00,
2013-05-20 11:32:00,79.9,57.9,29.70,West,270,0.0,0.0,47,0.00,,,0.00,meteohub,2013-05-20 16:32:00,
2013-05-20 11:37:00,80.4,59.0,29.70,SW,225,0.0,0.0,48,0.00,,,0.00,meteohub,2013-05-20 16:37:00,
2013-05-20 11:42:00,80.4,59.0,29.70,West,270,0.0,0.0,48,0.00,,,0.00,meteohub,2013-05-20 16:42:00,
2013-05-20 11:47:00,80.8,59.2,29.70,South,180,0.0,0.0,48,0.00,,,0.00,meteohub,2013-05-20 16:47:00,
2013-05-20 11:52:00,80.8,57.4,29.70,SSW,203,0.0,0.0,45,0.00,,,0.00,meteohub,2013-05-20 16:52:00,
2013-05-20 11:57:00,81.0,57.6,29.70,SW,225,7.0,0.0,45,0.00,,,0.00,meteohub,2013-05-20 16:57:00,
2013-05-20 12:02:00,81.3,60.3,29.70,SE,135,0.0,10.0,49,0.00,,,0.00,meteohub,2013-05-20 17:02:00,
2013-05-20 12:07:00,81.5,60.4,29.70,NW,315,0.0,10.0,49,0.00,,,0.00,meteohub,2013-05-20 17:07:00,
2013-05-20 12:12:00,81.9,59.0,29.69,South,180,0.0,10.0,46,0.00,,,0.00,meteohub,2013-05-20 17:12:00,
2013-05-20 12:17:00,81.5,58.1,29.69,SW,225,0.0,0.0,45,0.00,,,0.00,meteohub,2013-05-20 17:17:00,
2013-05-20 12:22:00,82.0,58.6,29.69,WNW,293,0.0,0.0,45,0.00,,,0.00,meteohub,2013-05-20 17:22:00,
2013-05-20 12:27:00,82.4,57.7,29.69,South,180,0.0,0.0,43,0.00,,,0.00,meteohub,2013-05-20 17:27:00,
2013-05-20 12:32:00,82.2,56.8,29.69,North,0,0.0,0.0,42,0.00,,,0.00,meteohub,2013-05-20 17:32:00,
2013-05-20 12:37:00,82.6,58.5,29.69,South,180,0.0,0.0,44,0.00,,,0.00,meteohub,2013-05-20 17:37:00,
2013-05-20 12:42:00,82.2,57.6,29.69,SW,225,0.0,0.0,43,0.00,,,0.00,meteohub,2013-05-20 17:42:00,
2013-05-20 12:47:00,82.6,57.7,29.68,SW,225,0.0,0.0,43,0.00,,,0.00,meteohub,2013-05-20 17:47:00,
2013-05-20 12:52:00,82.8,58.6,29.68,SW,225,0.0,0.0,44,0.00,,,0.00,meteohub,2013-05-20 17:52:00,
2013-05-20 12:57:00,83.3,59.7,29.69,SW,225,0.0,0.0,45,0.00,,,0.00,meteohub,2013-05-20 17:57:00,
2013-05-20 13:02:00,84.2,60.6,29.68,SW,225,0.0,0.0,45,0.00,,,0.00,meteohub,2013-05-20 18:02:00,
2013-05-20 13:07:00,83.8,60.8,29.68,SSE,158,0.0,0.0,46,0.00,,,0.00,meteohub,2013-05-20 18:07:00,
2013-05-20 13:12:00,84.0,60.4,29.68,East,90,0.0,0.0,45,0.00,,,0.00,meteohub,2013-05-20 18:12:00,
2013-05-20 13:17:00,83.8,60.3,29.68,SW,225,0.0,0.0,45,0.00,,,0.00,meteohub,2013-05-20 18:17:00,
2013-05-20 13:22:00,84.7,60.4,29.68,SE,135,4.0,0.0,44,0.00,,,0.00,meteohub,2013-05-20 18:22:00,
2013-05-20 13:27:00,84.7,59.2,29.68,SW,225,0.0,7.0,42,0.00,,,0.00,meteohub,2013-05-20 18:27:00,
2013-05-20 13:32:00,84.7,59.2,29.68,NE,45,0.0,8.0,42,0.00,,,0.00,meteohub,2013-05-20 18:32:00,
2013-05-20 13:37:00,85.3,59.0,29.68,SW,225,0.0,8.0,41,0.00,,,0.00,meteohub,2013-05-20 18:37:00,
2013-05-20 13:42:00,85.8,60.8,29.67,SW,225,0.0,0.0,43,0.00,,,0.00,meteohub,2013-05-20 18:42:00,
2013-05-20 13:47:00,85.8,57.9,29.67,South,180,0.0,0.0,39,0.00,,,0.00,meteohub,2013-05-20 18:47:00,
2013-05-20 13:52:00,84.7,56.3,29.67,NE,45,0.0,0.0,38,0.00,,,0.00,meteohub,2013-05-20 18:52:00,
2013-05-20 13:57:00,84.7,58.5,29.67,SW,225,0.0,0.0,41,0.00,,,0.00,meteohub,2013-05-20 18:57:00,
2013-05-20 14:02:00,85.3,59.0,29.66,SW,225,0.0,0.0,41,0.00,,,0.00,meteohub,2013-05-20 19:02:00,
2013-05-20 14:07:00,85.1,58.1,29.67,SW,225,0.0,0.0,40,0.00,,,0.00,meteohub,2013-05-20 19:07:00,
2013-05-20 14:12:00,85.1,58.8,29.67,SW,225,0.0,0.0,41,0.00,,,0.00,meteohub,2013-05-20 19:12:00,
2013-05-20 14:17:00,85.3,59.0,29.66,SW,225,0.0,0.0,41,0.00,,,0.00,meteohub,2013-05-20 19:17:00,
2013-05-20 14:22:00,85.3,59.0,29.67,West,270,0.0,1.0,41,0.00,,,0.00,meteohub,2013-05-20 19:22:00,
2013-05-20 14:27:00,85.3,59.0,29.66,SW,225,0.0,1.0,41,0.00,,,0.00,meteohub,2013-05-20 19:27:00,
2013-05-20 14:32:00,85.5,59.7,29.67,West,270,0.0,0.0,42,0.00,,,0.00,meteohub,2013-05-20 19:32:00,
2013-05-20 14:37:00,86.2,59.0,29.67,SE,135,0.0,0.0,40,0.00,,,0.00,meteohub,2013-05-20 19:37:00,
2013-05-20 14:42:00,85.1,58.8,29.67,SW,225,0.0,0.0,41,0.00,,,0.00,meteohub,2013-05-20 19:42:00,
2013-05-20 14:47:00,86.5,60.1,29.66,SW,225,0.0,0.0,41,0.00,,,0.00,meteohub,2013-05-20 19:47:00,
2013-05-20 14:52:00,85.6,59.2,29.67,SW,225,0.0,0.0,41,0.00,,,0.00,meteohub,2013-05-20 19:52:00,
2013-05-20 14:57:00,85.8,59.4,29.67,NW,315,0.0,0.0,41,0.00,,,0.00,meteohub,2013-05-20 19:57:00,
2013-05-20 15:02:00,85.6,59.2,29.66,West,270,0.0,0.0,41,0.00,,,0.00,meteohub,2013-05-20 20:02:00,
2013-05-20 15:07:00,84.9,56.5,29.66,West,270,0.0,0.0,38,0.00,,,0.00,meteohub,2013-05-20 20:07:00,
2013-05-20 15:12:00,84.9,58.6,29.67,SW,225,0.0,0.0,41,0.00,,,0.00,meteohub,2013-05-20 20:12:00,
2013-05-20 15:17:00,85.3,57.6,29.66,SW,225,0.0,0.0,39,0.00,,,0.00,meteohub,2013-05-20 20:17:00,
2013-05-20 15:22:00,85.1,57.4,29.66,SW,225,0.0,0.0,39,0.00,,,0.00,meteohub,2013-05-20 20:22:00,
2013-05-20 15:27:00,84.9,57.9,29.66,SW,225,0.0,0.0,40,0.00,,,0.00,meteohub,2013-05-20 20:27:00,
2013-05-20 15:32:00,84.6,56.8,29.66,West,270,0.0,0.0,39,0.00,,,0.00,meteohub,2013-05-20 20:32:00,
2013-05-20 15:37:00,85.1,58.1,29.66,WSW,248,0.0,0.0,40,0.00,,,0.00,meteohub,2013-05-20 20:37:00,
2013-05-20 15:42:00,85.3,56.8,29.66,NW,315,0.0,0.0,38,0.00,,,0.00,meteohub,2013-05-20 20:42:00,
2013-05-20 15:47:00,85.1,55.9,29.66,South,180,0.0,0.0,37,0.00,,,0.00,meteohub,2013-05-20 20:47:00,
2013-05-20 15:52:00,84.7,57.7,29.66,South,180,0.0,0.0,40,0.00,,,0.00,meteohub,2013-05-20 20:52:00,
2013-05-20 15:57:00,84.7,57.0,29.66,WSW,248,0.0,0.0,39,0.00,,,0.00,meteohub,2013-05-20 20:57:00,
2013-05-20 16:02:00,84.7,57.7,29.66,South,180,0.0,0.0,40,0.00,,,0.00,meteohub,2013-05-20 21:02:00,
2013-05-20 16:07:00,84.9,58.6,29.65,SW,225,0.0,0.0,41,0.00,,,0.00,meteohub,2013-05-20 21:07:00,
2013-05-20 16:12:00,84.7,58.5,29.65,West,270,0.0,0.0,41,0.00,,,0.00,meteohub,2013-05-20 21:12:00,
2013-05-20 16:17:00,85.1,59.4,29.65,South,180,0.0,0.0,42,0.00,,,0.00,meteohub,2013-05-20 21:17:00,
2013-05-20 16:22:00,84.9,58.6,29.65,South,180,0.0,0.0,41,0.00,,,0.00,meteohub,2013-05-20 21:22:00,
2013-05-20 16:27:00,84.9,58.6,29.65,South,180,0.0,0.0,41,0.00,,,0.00,meteohub,2013-05-20 21:27:00,
2013-05-20 16:32:00,84.6,56.8,29.65,SW,225,0.0,0.0,39,0.00,,,0.00,meteohub,2013-05-20 21:32:00,
2013-05-20 16:37:00,84.9,58.6,29.65,NW,315,0.0,0.0,41,0.00,,,0.00,meteohub,2013-05-20 21:37:00,
2013-05-20 16:42:00,85.1,58.1,29.65,South,180,0.0,0.0,40,0.00,,,0.00,meteohub,2013-05-20 21:42:00,
2013-05-20 16:47:00,84.7,58.5,29.64,South,180,0.0,0.0,41,0.00,,,0.00,meteohub,2013-05-20 21:47:00,
2013-05-20 16:52:00,84.7,57.7,29.64,NW,315,0.0,0.0,40,0.00,,,0.00,meteohub,2013-05-20 21:52:00,
2013-05-20 16:57:00,84.6,56.8,29.64,NW,315,0.0,0.0,39,0.00,,,0.00,meteohub,2013-05-20 21:57:00,
2013-05-20 17:02:00,85.1,56.7,29.63,West,270,0.0,0.0,38,0.00,,,0.00,meteohub,2013-05-20 22:02:00,
2013-05-20 17:07:00,86.0,58.1,29.63,NW,315,0.0,0.0,39,0.00,,,0.00,meteohub,2013-05-20 22:07:00,
2013-05-20 17:12:00,85.3,59.0,29.64,South,180,0.0,0.0,41,0.00,,,0.00,meteohub,2013-05-20 22:12:00,
2013-05-20 17:17:00,85.3,58.3,29.63,WSW,248,0.0,0.0,40,0.00,,,0.00,meteohub,2013-05-20 22:17:00,
2013-05-20 17:22:00,85.1,57.4,29.64,SW,225,0.0,0.0,39,0.00,,,0.00,meteohub,2013-05-20 22:22:00,
2013-05-20 17:27:00,84.4,57.4,29.64,South,180,0.0,0.0,40,0.00,,,0.00,meteohub,2013-05-20 22:27:00,
2013-05-20 17:32:00,84.7,58.5,29.64,West,270,0.0,0.0,41,0.00,,,0.00,meteohub,2013-05-20 22:32:00,
2013-05-20 17:37:00,84.6,57.6,29.64,West,270,0.0,0.0,40,0.00,,,0.00,meteohub,2013-05-20 22:37:00,
2013-05-20 17:42:00,84.6,58.3,29.64,SW,225,0.0,0.0,41,0.00,,,0.00,meteohub,2013-05-20 22:42:00,
2013-05-20 17:47:00,84.4,58.1,29.63,NW,315,0.0,0.0,41,0.00,,,0.00,meteohub,2013-05-20 22:47:00,
2013-05-20 17:52:00,84.2,57.9,29.64,South,180,0.0,0.0,41,0.00,,,0.00,meteohub,2013-05-20 22:52:00,
2013-05-20 17:57:00,84.2,57.9,29.63,South,180,0.0,0.0,41,0.00,,,0.00,meteohub,2013-05-20 22:57:00,
2013-05-20 18:02:00,84.4,58.1,29.63,SW,225,0.0,0.0,41,0.00,,,0.00,meteohub,2013-05-20 23:02:00,
2013-05-20 18:07:00,84.2,58.6,29.63,SW,225,0.0,0.0,42,0.00,,,0.00,meteohub,2013-05-20 23:07:00,
2013-05-20 18:12:00,84.0,59.2,29.63,SSW,203,0.0,0.0,43,0.00,,,0.00,meteohub,2013-05-20 23:12:00,
2013-05-20 18:17:00,84.7,59.2,29.63,NW,315,0.0,0.0,42,0.00,,,0.00,meteohub,2013-05-20 23:17:00,
2013-05-20 18:22:00,84.9,58.6,29.63,SW,225,0.0,0.0,41,0.00,,,0.00,meteohub,2013-05-20 23:22:00,
2013-05-20 18:27:00,84.6,59.0,29.63,SW,225,0.0,0.0,42,0.00,,,0.00,meteohub,2013-05-20 23:27:00,
2013-05-20 18:32:00,83.8,59.0,29.64,West,270,0.0,0.0,43,0.00,,,0.00,meteohub,2013-05-20 23:32:00,
2013-05-20 18:37:00,83.8,58.3,29.63,West,270,0.0,0.0,42,0.00,,,0.00,meteohub,2013-05-20 23:37:00,
2013-05-20 18:42:00,83.8,58.3,29.63,SW,225,0.0,0.0,42,0.00,,,0.00,meteohub,2013-05-20 23:42:00,
2013-05-20 18:47:00,83.8,58.3,29.64,West,270,0.0,0.0,42,0.00,,,0.00,meteohub,2013-05-20 23:47:00,
2013-05-20 18:52:00,83.1,58.3,29.64,South,180,0.0,1.0,43,0.00,,,0.00,meteohub,2013-05-20 23:52:00,
2013-05-20 18:57:00,82.9,58.1,29.64,South,180,0.0,4.0,43,0.00,,,0.00,meteohub,2013-05-20 23:57:00,
2013-05-20 19:02:00,82.4,58.3,29.64,SW,225,0.0,4.0,44,0.00,,,0.00,meteohub,2013-05-21 00:02:00,
2013-05-20 19:07:00,82.0,57.4,29.65,WSW,248,0.0,4.0,43,0.00,,,0.00,meteohub,2013-05-21 00:07:00,
2013-05-20 19:12:00,81.9,57.2,29.65,South,180,0.0,0.0,43,0.00,,,0.00,meteohub,2013-05-21 00:12:00,
2013-05-20 19:17:00,81.9,56.5,29.64,NW,315,0.0,0.0,42,0.00,,,0.00,meteohub,2013-05-21 00:17:00,
2013-05-20 19:22:00,81.5,56.8,29.64,SW,225,0.0,0.0,43,0.00,,,0.00,meteohub,2013-05-21 00:22:00,
2013-05-20 19:27:00,81.1,56.5,29.65,SSW,203,0.0,0.0,43,0.00,,,0.00,meteohub,2013-05-21 00:27:00,
2013-05-20 19:32:00,80.8,56.8,29.64,South,180,0.0,0.0,44,0.00,,,0.00,meteohub,2013-05-21 00:32:00,
2013-05-20 19:37:00,80.4,57.7,29.65,South,180,0.0,0.0,46,0.00,,,0.00,meteohub,2013-05-21 00:37:00,
2013-05-20 19:42:00,80.4,57.7,29.65,South,180,0.0,0.0,46,0.00,,,0.00,meteohub,2013-05-21 00:42:00,
2013-05-20 19:47:00,79.9,58.5,29.65,South,180,0.0,0.0,48,0.00,,,0.00,meteohub,2013-05-21 00:47:00,
2013-05-20 19:52:00,79.7,58.3,29.65,NW,315,0.0,0.0,48,0.00,,,0.00,meteohub,2013-05-21 00:52:00,
2013-05-20 19:57:00,79.3,58.5,29.65,SW,225,0.0,0.0,49,0.00,,,0.00,meteohub,2013-05-21 00:57:00,
2013-05-20 20:02:00,79.0,58.1,29.65,SW,225,0.0,0.0,49,0.00,,,0.00,meteohub,2013-05-21 01:02:00,
2013-05-20 20:12:00,78.3,58.6,29.65,SW,225,0.0,0.0,51,0.00,,,0.00,meteohub,2013-05-21 01:12:00,
2013-05-20 20:17:00,77.9,58.3,29.65,SW,225,0.0,0.0,51,0.00,,,0.00,meteohub,2013-05-21 01:17:00,
2013-05-20 20:22:00,77.4,58.3,29.65,SW,225,0.0,0.0,52,0.00,,,0.00,meteohub,2013-05-21 01:22:00,
2013-05-20 20:27:00,77.2,58.3,29.65,SW,225,0.0,0.0,52,0.00,,,0.00,meteohub,2013-05-21 01:27:00,
2013-05-20 20:32:00,77.0,58.1,29.65,SW,225,0.0,0.0,52,0.00,,,0.00,meteohub,2013-05-21 01:32:00,
2013-05-20 20:37:00,76.6,58.3,29.65,SW,225,0.0,0.0,53,0.00,,,0.00,meteohub,2013-05-21 01:37:00,
2013-05-20 20:42:00,76.3,58.5,29.65,South,180,0.0,0.0,54,0.00,,,0.00,meteohub,2013-05-21 01:42:00,
2013-05-20 20:47:00,75.7,57.9,29.65,South,180,0.0,0.0,54,0.00,,,0.00,meteohub,2013-05-21 01:47:00,
2013-05-20 20:52:00,75.4,58.1,29.66,South,180,0.0,0.0,55,0.00,,,0.00,meteohub,2013-05-21 01:52:00,
2013-05-20 20:57:00,75.0,58.8,29.66,South,180,0.0,0.0,57,0.00,,,0.00,meteohub,2013-05-21 01:57:00,
2013-05-20 21:02:00,74.7,59.4,29.66,East,90,0.0,0.0,59,0.00,,,0.00,meteohub,2013-05-21 02:02:00,
2013-05-20 21:07:00,74.1,59.4,29.66,East,90,0.0,0.0,60,0.00,,,0.00,meteohub,2013-05-21 02:07:00,
2013-05-20 21:12:00,73.6,59.4,29.66,East,90,0.0,0.0,61,0.00,,,0.00,meteohub,2013-05-21 02:12:00,
2013-05-20 21:17:00,73.2,59.4,29.67,East,90,0.0,0.0,62,0.00,,,0.00,meteohub,2013-05-21 02:17:00,
2013-05-20 21:22:00,73.0,59.2,29.67,East,90,0.0,0.0,62,0.00,,,0.00,meteohub,2013-05-21 02:22:00,
2013-05-20 21:27:00,72.7,59.4,29.67,East,90,0.0,0.0,63,0.00,,,0.00,meteohub,2013-05-21 02:27:00,
2013-05-20 21:32:00,72.5,59.2,29.66,East,90,0.0,0.0,63,0.00,,,0.00,meteohub,2013-05-21 02:32:00,
2013-05-20 21:37:00,72.5,59.5,29.67,East,90,0.0,0.0,64,0.00,,,0.00,meteohub,2013-05-21 02:37:00,
2013-05-20 21:42:00,72.3,59.5,29.67,East,90,0.0,0.0,64,0.00,,,0.00,meteohub,2013-05-21 02:42:00,
2013-05-20 21:47:00,71.8,59.0,29.66,East,90,0.0,0.0,64,0.00,,,0.00,meteohub,2013-05-21 02:47:00,
2013-05-20 21:52:00,71.8,59.4,29.66,NW,315,0.0,0.0,65,0.00,,,0.00,meteohub,2013-05-21 02:52:00,
2013-05-20 21:57:00,71.8,59.0,29.66,SW,225,0.0,0.0,64,0.00,,,0.00,meteohub,2013-05-21 02:57:00,
2013-05-20 22:02:00,71.8,59.4,29.66,NW,315,0.0,0.0,65,0.00,,,0.00,meteohub,2013-05-21 03:02:00,
2013-05-20 22:07:00,71.6,59.7,29.67,NW,315,0.0,0.0,66,0.00,,,0.00,meteohub,2013-05-21 03:07:00,
2013-05-20 22:12:00,71.4,59.9,29.67,NW,315,0.0,0.0,67,0.00,,,0.00,meteohub,2013-05-21 03:12:00,
2013-05-20 22:17:00,71.4,60.3,29.67,NW,315,0.0,0.0,68,0.00,,,0.00,meteohub,2013-05-21 03:17:00,
2013-05-20 22:22:00,71.2,60.6,29.67,NW,315,0.0,0.0,69,0.00,,,0.00,meteohub,2013-05-21 03:22:00,
2013-05-20 22:27:00,71.4,60.8,29.66,NW,315,0.0,0.0,69,0.00,,,0.00,meteohub,2013-05-21 03:27:00,
2013-05-20 22:32:00,71.4,60.8,29.66,NW,315,0.0,0.0,69,0.00,,,0.00,meteohub,2013-05-21 03:32:00,
2013-05-20 22:37:00,71.4,60.8,29.66,NW,315,0.0,0.0,69,0.00,,,0.00,meteohub,2013-05-21 03:37:00,
2013-05-20 22:42:00,71.4,60.8,29.65,NW,315,0.0,0.0,69,0.00,,,0.00,meteohub,2013-05-21 03:42:00,
2013-05-20 22:47:00,71.4,61.5,29.64,East,90,0.0,0.0,71,0.00,,,0.00,meteohub,2013-05-21 03:47:00,
2013-05-20 22:52:00,71.8,60.6,29.64,SW,225,0.0,0.0,68,0.00,,,0.00,meteohub,2013-05-21 03:52:00,
2013-05-20 22:57:00,71.6,60.4,29.65,SW,225,0.0,0.0,68,0.00,,,0.00,meteohub,2013-05-21 03:57:00,
2013-05-20 23:02:00,71.4,61.2,29.64,East,90,0.0,0.0,70,0.00,,,0.00,meteohub,2013-05-21 04:02:00,
2013-05-20 23:07:00,71.4,61.5,29.65,South,180,0.0,0.0,71,0.00,,,0.00,meteohub,2013-05-21 04:07:00,
2013-05-20 23:12:00,71.2,61.7,29.65,SW,225,0.0,0.0,72,0.00,,,0.00,meteohub,2013-05-21 04:12:00,
2013-05-20 23:17:00,71.1,61.9,29.66,South,180,0.0,0.0,73,0.00,,,0.00,meteohub,2013-05-21 04:17:00,
2013-05-20 23:22:00,71.2,61.7,29.67,SW,225,0.0,0.0,72,0.00,,,0.00,meteohub,2013-05-21 04:22:00,
2013-05-20 23:27:00,72.0,61.7,29.68,SW,225,0.0,0.0,70,0.00,,,0.00,meteohub,2013-05-21 04:27:00,
2013-05-20 23:32:00,72.0,62.1,29.68,SW,225,0.0,0.0,71,0.00,,,0.00,meteohub,2013-05-21 04:32:00,
2013-05-20 23:37:00,71.2,63.0,29.69,SW,225,0.0,0.0,75,0.00,,,0.00,meteohub,2013-05-21 04:37:00,
2013-05-20 23:42:00,70.7,63.1,29.69,SW,225,0.0,0.0,77,0.00,,,0.00,meteohub,2013-05-21 04:42:00,
2013-05-20 23:47:00,70.3,63.9,29.68,South,180,0.0,0.0,80,0.01,,,0.01,meteohub,2013-05-21 04:47:00,
2013-05-20 23:52:00,69.6,64.2,29.68,South,180,0.0,1.0,83,0.02,,,0.02,meteohub,2013-05-21 04:52:00,
2013-05-20 23:57:00,68.9,64.2,29.66,South,180,0.0,1.0,85,0.02,,,0.02,meteohub,2013-05-21 04:57:00,